GW5277 Weather Reports


Display with metric or nautical units.
time (UTC)temp
F
wind
direction
speed
MPH
gust
MPH
rain 1hr
in
rain 24hr
in
rain mn
in
humidity
%
barometer
mb
20260504070344 0 0.0 0.0 0.00 0.00 0.00 1016.3
20260504050732 44 303 0.0 0.0 0.00 0.00 0.00 79 1016.8
20260504050229 44 298 0.0 0.0 0.00 0.00 0.00 84 1016.9
20260504045726 43 297 1.0 2.0 0.00 0.00 0.00 85 1016.8
20260504045221 43 296 0.0 0.0 0.00 0.00 0.00 87 1016.7
20260504044719 43 293 0.0 0.0 0.00 0.00 0.00 88 1016.7
20260504044216 42 296 0.0 0.0 0.00 0.00 0.00 88 1016.6
20260504043713 42 297 0.0 0.0 0.00 0.00 0.00 89 1016.9
20260504043210 42 299 0.0 0.0 0.00 0.00 0.00 89 1016.6
20260504042707 42 299 0.0 0.0 0.00 0.00 0.00 89 1016.8
20260504042203 41 299 0.0 0.0 0.00 0.00 0.00 89 1017.0
20260504041659 41 299 0.0 0.0 0.00 0.00 0.00 88 1016.7
20260504041155 41 299 0.0 0.0 0.00 0.00 0.00 87 1016.7
20260504040653 41 299 0.0 0.0 0.00 0.00 0.00 86 1016.8
20260504040150 41 299 0.0 0.0 0.00 0.00 0.00 86 1016.8
20260504035646 40 299 0.0 0.0 0.00 0.00 0.00 86 1016.7
20260504035143 40 301 0.0 0.0 0.00 0.00 0.00 85 1016.7
20260504034641 40 301 0.0 0.0 0.00 0.00 0.00 85 1017.0
20260504034137 40 301 0.0 0.0 0.00 0.00 0.00 84 1016.8
20260504033635 40 301 0.0 0.0 0.00 0.00 0.00 84 1016.9
20260504033132 40 303 0.0 0.0 0.00 0.00 0.00 85 1016.8
20260504032629 40 303 0.0 0.0 0.00 0.00 0.00 84 1017.0
20260504032126 40 303 0.0 0.0 0.00 0.00 0.00 84 1016.9
20260504031623 40 303 0.0 0.0 0.00 0.00 0.00 82 1016.8
20260504031119 40 303 0.0 0.0 0.00 0.00 0.00 83 1016.9
20260504030616 40 304 0.0 0.0 0.00 0.00 0.00 82 1017.0
20260504030113 40 304 0.0 0.0 0.00 0.00 0.00 83 1016.9
20260504025610 40 303 0.0 0.0 0.00 0.00 0.00 83 1017.1
20260504025107 40 304 0.0 0.0 0.00 0.00 0.00 82 1017.0
20260504024604 40 304 0.0 0.0 0.00 0.00 0.00 82 1017.1
20260504024101 40 304 0.0 0.0 0.00 0.00 0.00 81 1017.1
20260504023557 41 304 0.0 0.0 0.00 0.00 0.00 80 1017.1
20260504023053 41 304 0.0 0.0 0.00 0.00 0.00 79 1017.0
20260504022549 42 304 0.0 0.0 0.00 0.00 0.00 79 1017.1
20260504022046 42 304 0.0 0.0 0.00 0.00 0.00 79 1016.9
20260504021543 42 304 0.0 0.0 0.00 0.00 0.00 77 1017.1
20260504021040 42 304 0.0 0.0 0.00 0.00 0.00 77 1016.7
20260504020537 43 304 0.0 0.0 0.00 0.00 0.00 75 1016.9
20260504020033 43 303 0.0 0.0 0.00 0.00 0.00 74 1016.9
20260504015530 43 305 0.0 0.0 0.00 0.00 0.00 76 1016.9
20260504015026 44 304 0.0 0.0 0.00 0.00 0.00 74 1017.0
20260504014522 44 304 0.0 0.0 0.00 0.00 0.00 73 1017.1
20260504014019 45 303 0.0 0.0 0.00 0.00 0.00 72 1017.0
20260504013517 45 305 0.0 0.0 0.00 0.00 0.00 68 1017.0
20260504013014 45 305 1.0 1.0 0.00 0.00 0.00 71 1016.9
20260504012512 46 302 0.0 1.0 0.00 0.00 0.00 68 1016.8
20260504012009 45 307 0.0 1.0 0.00 0.00 0.00 70 1016.9
20260504011505 46 341 0.0 1.0 0.00 0.00 0.00 70 1016.8
20260504011001 46 342 0.0 0.0 0.00 0.00 0.00 71 1016.8
20260504010457 46 349 0.0 0.0 0.00 0.00 0.00 68 1017.0
20260504005953 46 350 0.0 0.0 0.00 0.00 0.00 66 1016.9
20260504005450 47 346 0.0 0.0 0.00 0.00 0.00 65 1016.8
20260504004948 48 350 1.0 2.0 0.00 0.00 0.00 63 1016.8
20260504004445 48 241 0.0 0.0 0.00 0.00 0.00 61 1016.8
20260504003942 49 212 0.0 0.0 0.00 0.00 0.00 55 1017.0
20260504003438 50 214 0.0 0.0 0.00 0.00 0.00 50 1016.8
20260504002935 52 130 0.0 1.0 0.00 0.00 0.00 49 1016.7
20260504002432 52 186 0.0 1.0 0.00 0.00 0.00 45 1016.6
20260504001930 52 234 2.0 2.0 0.00 0.00 0.00 52 1016.7
20260504001427 52 136 0.0 0.0 0.00 0.00 0.00 48 1016.8
20260504000923 53 182 0.0 1.0 0.00 0.00 0.00 42 1016.8
20260504000421 54 158 1.0 1.0 0.00 0.00 0.00 43 1016.7
20260503235918 54 158 1.0 1.0 0.00 0.00 0.00 43 1016.7
20260503235416 54 104 1.0 2.0 0.00 0.00 0.00 43 1016.8
20260503234913 54 181 2.0 2.0 0.00 0.00 0.00 42 1016.5
20260503234411 55 208 1.0 1.0 0.00 0.00 0.00 41 1016.6
20260503233908 55 188 4.0 4.0 0.00 0.00 0.00 38 1016.6
20260503233405 55 146 6.0 8.0 0.00 0.00 0.00 38 1016.8
20260503232901 55 139 3.0 6.0 0.00 0.00 0.00 40 1016.7
20260503232358 55 145 3.0 7.0 0.00 0.00 0.00 41 1016.6
20260503231856 55 165 4.0 7.0 0.00 0.00 0.00 41 1016.8
20260503231353 56 81 2.0 3.0 0.00 0.00 0.00 41 1016.7
20260503230849 56 191 2.0 2.0 0.00 0.00 0.00 39 1016.7
20260503230346 56 201 2.0 2.0 0.00 0.00 0.00 37 1016.8
20260503225844 56 160 7.0 8.0 0.00 0.00 0.00 39 1016.8
20260503225339 58 162 1.0 4.0 0.00 0.00 0.00 39 1016.7
20260503224836 58 240 3.0 3.0 0.00 0.00 0.00 39 1016.9
20260503224333 58 162 2.0 2.0 0.00 0.00 0.00 37 1017.0
20260503223831 58 238 1.0 3.0 0.00 0.00 0.00 41 1016.9
20260503223328 58 149 4.0 6.0 0.00 0.00 0.00 37 1016.9
20260503222824 59 209 2.0 3.0 0.00 0.00 0.00 40 1017.1
20260503222323 59 152 1.0 3.0 0.00 0.00 0.00 38 1016.9
20260503221820 59 186 3.0 4.0 0.00 0.00 0.00 37 1017.0
20260503221319 59 87 2.0 2.0 0.00 0.00 0.00 37 1016.9
20260503220814 59 220 5.0 6.0 0.00 0.00 0.00 34 1017.0
20260503220311 59 244 1.0 3.0 0.00 0.00 0.00 36 1017.0
20260503215808 58 278 5.0 6.0 0.00 0.00 0.00 38 1017.1
20260503215305 58 316 6.0 10.0 0.00 0.00 0.00 39 1016.9
20260503214803 59 290 5.0 13.0 0.00 0.00 0.00 38 1016.9
20260503214300 59 283 4.0 9.0 0.00 0.00 0.00 36 1016.8
20260503213758 59 267 5.0 10.0 0.00 0.00 0.00 36 1016.9
20260503213255 59 280 6.0 7.0 0.00 0.00 0.00 36 1016.8
20260503212751 60 272 5.0 6.0 0.00 0.00 0.00 34 1016.8
20260503212249 58 282 4.0 7.0 0.00 0.00 0.00 40 1017.0
20260503211747 59 284 2.0 4.0 0.00 0.00 0.00 43 1016.9
20260503211243 59 268 7.0 10.0 0.00 0.00 0.00 36 1017.0
20260503210738 59 184 3.0 9.0 0.00 0.00 0.00 37 1017.0
20260503210236 59 225 3.0 9.0 0.00 0.00 0.00 35 1017.0
20260503205731 59 299 5.0 9.0 0.00 0.00 0.00 40 1016.9
20260503205227 58 248 6.0 11.0 0.00 0.00 0.00 36 1017.3
20260503204724 59 280 7.0 9.0 0.00 0.00 0.00 39 1017.3
20260503204222 59 195 3.0 4.0 0.00 0.00 0.00 42 1017.3
20260503203719 60 135 5.0 7.0 0.00 0.00 0.00 35 1017.4
20260503203216 60 235 2.0 4.0 0.00 0.00 0.00 40 1017.0
20260503202713 60 204 2.0 4.0 0.00 0.00 0.00 38 1017.7
20260503202211 59 251 4.0 6.0 0.00 0.00 0.00 43 1017.6
20260503201709 59 256 8.0 10.0 0.00 0.00 0.00 39 1017.6
20260503201206 59 243 4.0 8.0 0.00 0.00 0.00 38 1017.7
20260503200702 60 210 3.0 6.0 0.00 0.00 0.00 38 1017.7
20260503200159 59 276 5.0 6.0 0.00 0.00 0.00 36 1017.7
20260503195656 59 222 2.0 3.0 0.00 0.00 0.00 41 1018.0
20260503195153 59 250 7.0 8.0 0.00 0.00 0.00 39 1018.1
20260503194650 58 160 3.0 7.0 0.00 0.00 0.00 41 1018.1
20260503194145 58 318 6.0 8.0 0.00 0.00 0.00 36 1018.3
20260503193642 57 329 3.0 3.0 0.00 0.00 0.00 40 1018.4
20260503193137 58 167 4.0 4.0 0.00 0.00 0.00 38 1018.2
20260503192633 56 164 2.0 3.0 0.00 0.00 0.00 42 1018.5
20260503192129 57 193 3.0 8.0 0.00 0.00 0.00 44 1018.4
20260503191626 58 237 2.0 7.0 0.00 0.00 0.00 38 1018.4
20260503191123 57 215 5.0 7.0 0.00 0.00 0.00 43 1018.6
20260503190620 56 273 4.0 4.0 0.00 0.00 0.00 41 1018.6
20260503190117 57 238 6.0 8.0 0.00 0.00 0.00 41 1018.7
20260503185614 58 220 5.0 7.0 0.00 0.00 0.00 42 1018.9
20260503185114 58 243 3.0 4.0 0.00 0.00 0.00 43 1018.6
20260503184609 56 190 2.0 2.0 0.00 0.00 0.00 41 1018.7
20260503184106 58 121 3.0 6.0 0.00 0.00 0.00 40 1018.9
20260503183603 58 297 6.0 15.0 0.00 0.00 0.00 46 1019.0
20260503183100 58 151 4.0 7.0 0.00 0.00 0.00 36 1019.0
20260503182558 58 176 4.0 6.0 0.00 0.00 0.00 44 1019.0
20260503182056 57 189 6.0 8.0 0.00 0.00 0.00 44 1019.2
20260503181553 57 210 6.0 10.0 0.00 0.00 0.00 47 1019.1
20260503181049 55 315 3.0 4.0 0.00 0.00 0.00 43 1019.0
20260503180546 56 235 1.0 3.0 0.00 0.00 0.00 40 1019.1
20260503180044 56 185 7.0 14.0 0.00 0.00 0.00 44 1019.1
20260503175541 55 266 3.0 3.0 0.00 0.00 0.00 44 1019.4
20260503175038 56 290 2.0 4.0 0.00 0.00 0.00 37 1019.3
20260503174535 56 303 6.0 9.0 0.00 0.00 0.00 37 1019.3
20260503174031 55 276 4.0 8.0 0.00 0.00 0.00 44 1019.5
20260503173527 55 233 4.0 9.0 0.00 0.00 0.00 46 1019.6
20260503173023 56 131 3.0 7.0 0.00 0.00 0.00 40 1019.7
20260503172521 56 194 1.0 4.0 0.00 0.00 0.00 47 1019.5
20260503172018 56 280 1.0 7.0 0.00 0.00 0.00 41 1019.6
20260503171514 55 278 7.0 13.0 0.00 0.00 0.00 43 1019.9
20260503171012 55 358 1.0 4.0 0.00 0.00 0.00 41 1019.8
20260503170508 55 261 7.0 11.0 0.00 0.00 0.00 46 1020.1
20260503150900 50 274 6.0 11.0 0.00 0.00 0.00 48 1021.0
20260503150356 50 290 5.0 8.0 0.00 0.00 0.00 49 1021.0
20260503131250 46 252 3.0 6.0 0.00 0.00 0.00 71 1021.1
20260503130748 45 258 3.0 6.0 0.00 0.00 0.00 72 1021.1
20260503130245 45 213 4.0 6.0 0.00 0.00 0.00 72 1021.0
20260503120211 41 244 0.0 3.0 0.00 0.00 0.00 83 1020.8
20260503110638 31 220 0.0 0.0 0.00 0.00 0.00 98 1020.1
20260503110136 31 220 0.0 0.0 0.00 0.00 0.00 98 1020.1
20260503081451 31 278 0.0 0.0 0.00 0.00 0.00 95 1019.2
20260503080948 31 278 0.0 0.0 0.00 0.00 0.00 95 1019.4
20260503080445 32 276 0.0 1.0 0.00 0.00 0.00 95 1019.4
20260503072921 33 270 0.0 0.0 0.00 0.00 0.00 93 1018.9
20260503072419 33 270 0.0 0.0 0.00 0.00 0.00 92 1018.8
20260503071915 34 270 0.0 1.0 0.00 0.00 0.00 92 1018.7
20260503071413 34 270 1.0 1.0 0.00 0.00 0.00 91 1018.7
20260503070908 34 268 1.0 1.0 0.00 0.00 0.00 89 1018.9